Theta_e
306 300 297 299 302 300 298 296 295 298 304 303 302 304 307 310 311 310 311 312 313 314 317 318 321 327 328 329 330 330 329 330 331 329 327 326 326 327 328 330 329 329 327 326
300 296 302 303 302 300 299 297 297 300 303 302 302 301 305 307 308 309 310 311 312 314 316 316 316 321 326 327 328 330 330 330 330 331 330 327 327 326 327 328 329 329 328 327
297 298 303 301 299 298 298 296 296 296 299 301 299 296 299 304 307 308 310 312 312 313 314 317 319 317 322 325 327 328 330 330 331 331 331 329 328 326 325 325 327 328 329 329
298 301 299 297 296 297 292 299 297 297 295 290 298 288 297 300 302 305 308 310 311 313 315 316 316 318 319 324 328 328 329 330 331 331 330 328 326 324 325 326 328 329 330 328
293 296 296 295 295 298 294 298 297 297 294 293 293 290 293 299 297 300 304 306 309 311 313 313 315 316 318 320 326 329 328 329 331 331 331 330 328 328 329 329 329 330 330 330
297 299 300 298 299 299 299 297 296 296 294 284 290 289 290 294 297 299 302 305 307 309 312 313 315 317 317 319 319 325 326 327 330 331 331 330 329 328 329 329 328 329 330 327
290 294 297 300 295 298 297 293 284 283 282 282 290 289 291 297 299 300 302 305 307 309 310 310 311 312 315 317 318 319 321 323 328 330 331 331 331 330 329 329 328 328 327 326
285 282 293 297 296 292 293 293 285 278 279 283 288 285 291 300 302 304 304 305 306 307 308 308 309 310 312 312 313 315 316 320 324 327 329 330 330 330 330 330 330 328 328 327
287 286 294 297 298 297 293 290 294 285 284 283 287 291 296 298 298 300 301 303 304 306 307 305 306 308 306 306 307 309 310 315 320 324 327 328 330 330 329 330 331 330 330 327
291 284 289 292 297 296 295 297 286 287 279 277 283 285 287 292 294 298 299 301 303 303 303 304 303 303 304 305 306 307 308 308 314 319 324 325 327 329 330 330 330 330 330 330
292 289 285 292 291 290 290 289 290 289 286 280 278 283 293 293 295 296 299 299 301 301 303 302 303 305 305 304 306 306 306 307 310 314 319 323 325 327 328 329 329 329 329 329
292 287 282 285 290 293 294 291 291 284 281 285 283 283 295 295 296 297 298 300 302 303 304 304 304 304 303 305 306 306 307 306 309 311 316 320 323 325 326 326 328 329 327 328
291 286 279 280 285 289 288 291 292 291 288 284 280 283 295 295 295 296 297 299 300 301 301 302 303 303 304 305 306 307 307 306 308 309 313 318 321 323 324 324 324 325 325 325
295 287 284 280 282 287 284 287 290 289 283 284 284 286 290 293 293 295 297 298 299 299 299 301 302 303 304 305 306 307 307 307 307 308 310 315 319 321 322 323 323 323 323 323
291 284 286 284 285 286 286 286 288 287 288 284 286 286 290 293 294 296 296 296 296 296 297 299 299 301 303 304 305 306 307 307 306 305 308 312 316 320 321 322 322 321 321 320
290 283 285 282 284 284 283 286 288 289 289 288 288 287 294 296 297 295 295 295 294 295 296 298 300 301 302 303 304 305 306 306 306 304 306 310 314 317 318 319 318 318 317 317
286 283 282 279 283 282 279 283 285 287 290 290 285 290 294 294 293 294 294 293 293 295 296 297 299 301 302 303 304 304 305 306 304 303 304 307 311 313 315 315 314 313 313 313
285 283 281 274 276 272 282 285 289 287 288 291 291 292 294 294 295 296 294 293 294 295 294 297 298 300 302 303 303 303 303 303 302 301 302 303 305 305 305 301 305 307 305 304
290 284 274 275 274 280 282 282 283 284 285 291 290 291 293 295 294 292 294 295 297 295 296 298 300 300 300 301 302 301 298 299 299 298 298 299 299 300 295 297 300 300 299 294
284 284 282 270 274 272 282 287 288 288 279 290 291 291 291 291 283 288 296 296 296 295 297 298 299 299 299 300 299 296 295 296 297 298 297 297 296 296 296 296 293 287 290 291
279 277 277 273 274 278 283 285 287 277 281 289 289 290 290 287 290 296 296 296 294 296 297 298 298 297 297 297 295 294 294 295 297 297 295 293 293 292 294 291 288 289 288 287
279 277 276 274 273 272 284 284 282 288 290 291 290 291 290 292 295 295 292 292 293 294 295 297 294 295 296 295 293 292 293 295 295 293 292 290 289 288 288 288 287 288 288 287
278 282 280 280 280 285 288 290 291 291 291 291 292 294 294 293 292 292 291 291 292 292 292 293 293 293 293 293 292 290 292 292 292 290 289 288 287 287 287 287 287 287 288 288
282 285 282 282 285 284 286 289 289 290 290 291 291 291 292 290 291 289 289 289 290 291 292 291 290 289 290 291 290 289 290 290 289 288 289 287 287 287 287 288 288 288 289 288
284 284 282 282 285 286 288 289 290 291 290 289 290 289 289 289 288 288 288 288 290 291 290 290 289 288 288 289 288 288 288 288 287 288 288 287 288 287 287 288 289 289 289 290
283 284 282 281 287 287 288 290 291 289 289 289 287 287 287 287 287 288 288 289 290 289 290 289 288 287 286 287 286 286 286 287 287 288 288 288 288 287 287 286 284 289 289 289
Wind_Speed
7 8 16 20 16 12 5 14 11 4 6 6 15 18 18 19 18 18 18 17 17 17 16 15 15 14 16 17 17 19 19 19 14 13 13 12 13 12 13 13 16 15 14 15
8 19 17 14 16 15 14 12 9 6 4 5 14 20 17 21 22 20 20 20 20 19 19 16 16 16 17 17 20 20 20 19 18 13 13 13 13 12 12 12 14 16 17 16
21 11 12 14 13 17 18 16 13 11 5 11 12 26 23 21 25 22 22 22 21 21 22 21 17 18 17 19 20 20 21 22 21 21 13 12 10 11 11 12 13 15 18 17
17 10 17 8 12 11 16 9 8 10 6 9 2 16 17 9 13 12 12 16 18 20 20 21 20 18 18 18 18 22 22 23 21 23 17 20 16 14 14 14 13 14 18 18
9 17 18 19 15 11 9 6 10 11 11 12 18 13 7 13 14 17 16 17 18 18 18 19 18 17 17 16 16 18 20 21 22 21 22 17 19 14 11 12 16 17 15 19
8 2 13 14 8 13 9 7 4 4 5 10 16 14 17 17 18 16 18 17 16 15 14 14 15 14 15 14 14 16 20 21 21 21 23 24 23 21 14 15 13 13 13 13
2 5 2 7 10 8 13 14 4 7 7 10 1 13 23 6 6 9 13 13 13 11 11 13 14 12 12 14 15 15 19 21 20 21 23 24 26 23 23 19 15 16 13 13
13 7 14 9 11 9 14 18 6 8 6 4 2 13 10 2 5 12 15 15 13 11 10 11 15 13 11 11 13 15 17 20 20 20 23 22 25 16 17 20 15 14 14 15
14 9 6 11 7 13 13 16 5 1 2 3 6 13 19 18 20 21 16 17 18 15 10 13 14 9 9 9 12 13 15 17 19 20 19 21 21 24 19 22 19 15 17 14
10 9 3 4 5 4 8 10 5 4 6 7 10 13 15 13 7 2 9 12 7 5 10 12 9 9 10 11 11 11 12 16 18 18 18 18 21 22 21 19 21 20 18 19
10 4 5 6 11 15 8 11 6 3 5 6 6 8 18 18 10 15 11 4 11 12 11 10 12 11 11 11 10 10 11 14 15 16 18 20 19 20 20 20 20 21 20 19
4 6 6 10 3 6 18 16 17 9 9 7 9 12 11 11 5 4 4 10 12 10 14 16 16 15 14 16 15 15 13 11 13 14 16 18 19 19 20 20 21 20 20 19
12 7 8 5 3 2 11 18 19 18 1 13 9 11 9 7 5 4 6 11 14 16 22 18 16 16 16 15 16 17 15 15 13 13 15 16 18 19 20 20 21 21 20 20
10 5 12 14 5 10 14 21 24 20 13 21 16 25 33 21 17 18 13 15 17 21 21 22 19 18 17 16 18 18 17 13 13 13 15 15 17 19 19 19 19 20 20 19
8 11 10 1 2 7 9 17 22 25 29 19 28 23 39 22 17 8 14 20 20 18 19 20 19 18 19 18 17 17 16 14 14 14 15 16 16 17 18 18 18 18 18 17
4 4 7 5 5 4 7 14 22 28 30 26 24 25 36 19 16 20 21 15 13 16 18 18 18 18 18 18 18 18 18 15 14 14 14 14 15 15 16 17 16 15 15 15
11 9 9 8 6 5 12 26 20 21 25 26 24 38 36 22 17 16 16 10 15 14 15 18 18 18 16 17 19 20 21 18 15 14 13 12 13 14 15 14 14 15 14 12
12 9 1 4 3 13 7 2 20 29 23 28 28 31 30 24 21 15 12 14 14 9 17 17 15 17 17 16 18 19 19 17 16 14 14 11 11 12 11 8 12 12 11 12
13 8 5 6 8 11 19 10 10 15 24 27 29 34 32 29 17 23 17 16 7 10 13 14 14 16 17 17 17 17 16 17 15 12 15 12 10 12 8 11 10 8 10 7
9 4 3 5 7 12 3 10 16 9 23 19 30 30 26 16 13 13 7 6 10 13 12 12 14 15 15 16 15 15 16 15 17 17 13 11 11 12 12 12 8 3 2 5
7 4 9 6 8 11 7 6 16 11 7 6 13 20 18 15 15 4 3 10 12 12 14 15 15 14 14 12 13 17 17 16 17 16 9 9 10 10 9 7 4 7 6 7
10 11 7 5 7 19 9 10 18 7 1 5 6 11 11 13 11 9 13 12 11 12 12 12 13 16 14 10 10 16 18 17 16 10 11 9 6 5 4 7 5 7 10 12
10 9 9 15 9 3 12 7 12 3 5 6 6 6 8 9 14 16 17 17 13 12 10 8 10 15 16 11 9 16 20 16 15 13 12 7 6 6 7 8 9 8 9 10
8 10 9 2 13 10 10 15 10 7 13 9 4 5 9 15 15 16 16 16 16 12 10 8 8 13 19 13 12 14 17 15 12 15 12 6 8 7 7 6 7 7 8 10
6 15 8 14 13 4 15 18 18 16 7 7 9 11 15 15 18 14 16 17 15 14 12 10 9 13 18 17 17 15 14 13 13 13 10 8 7 9 7 6 8 8 5 9
8 8 10 14 5 16 16 5 10 13 14 9 9 12 13 11 17 15 19 18 18 18 15 12 14 13 17 17 18 17 14 13 13 13 10 9 8 7 7 7 4 4 11 16
Wind_Direction
201 200 211 202 216 227 253 225 232 232 228 251 246 252 252 263 262 262 255 257 261 257 256 251 243 237 232 230 224 219 214 214 202 201 203 207 210 210 215 216 216 213 212 210
181 220 212 210 202 214 222 227 225 252 246 256 269 263 251 261 258 253 257 258 256 263 257 245 239 231 225 231 228 226 222 213 211 209 205 208 209 217 214 213 216 214 212 211
208 213 185 187 196 208 220 225 233 250 309 269 282 277 260 242 259 254 250 251 259 258 259 259 242 235 226 223 224 226 225 218 213 216 213 216 221 217 209 216 213 213 212 208
219 185 184 177 200 191 228 201 239 247 277 262 7 284 276 260 254 256 243 241 246 251 255 258 262 251 238 236 225 220 221 220 217 212 213 213 215 208 212 209 210 208 207 210
192 182 185 200 201 193 238 161 216 232 240 270 257 271 250 245 254 260 257 252 253 253 255 261 260 259 257 250 237 233 232 228 222 213 213 210 218 224 223 215 211 209 205 208
184 312 189 192 166 190 143 138 138 174 228 244 240 236 269 249 255 251 257 254 259 260 261 268 274 279 274 265 248 242 239 234 224 218 215 217 217 219 217 213 210 206 205 207
93 160 129 166 150 165 181 174 188 206 206 243 289 209 252 285 296 281 267 263 268 265 283 285 282 285 277 268 257 245 242 241 231 223 221 220 222 219 221 216 209 206 205 203
184 199 182 165 197 176 194 188 195 207 206 212 128 224 256 63 278 271 267 278 288 279 282 289 290 295 285 295 289 271 255 248 241 230 226 224 224 224 222 220 213 214 209 210
176 177 168 187 165 159 188 213 218 354 104 262 221 253 277 262 259 257 261 269 278 294 322 339 330 324 314 324 305 300 282 265 256 245 235 231 225 227 222 222 219 213 213 209
176 154 235 149 167 230 186 157 163 178 216 234 246 254 255 246 278 131 254 319 311 347 338 339 344 321 309 309 307 304 289 276 265 254 244 236 231 228 228 226 221 216 217 212
159 120 134 171 207 178 165 195 207 201 208 235 263 243 248 274 268 257 278 335 338 341 346 327 320 315 301 287 276 283 292 287 267 256 247 241 237 232 228 227 222 217 215 211
158 113 140 194 21 311 217 202 194 200 198 242 271 271 263 279 170 201 309 350 344 329 322 314 302 295 293 299 301 299 297 288 279 270 256 244 238 233 231 230 227 221 217 214
170 156 129 122 242 223 224 218 226 230 149 220 211 249 82 59 227 177 338 334 320 313 307 311 312 314 314 304 304 303 302 297 291 285 263 251 243 235 231 228 226 224 220 214
143 149 202 212 182 151 204 212 214 213 219 231 222 253 270 242 260 280 312 318 303 308 312 309 320 318 312 308 307 305 298 293 286 288 266 251 242 237 233 229 226 226 221 216
151 202 203 159 115 194 223 208 207 211 224 222 241 240 256 264 271 286 301 291 303 305 307 308 310 309 310 314 309 302 297 292 283 286 270 256 247 239 235 229 229 226 222 219
176 148 150 219 172 227 249 235 216 216 224 229 245 263 253 269 278 282 283 295 303 304 308 306 307 308 312 314 311 308 298 291 292 279 272 266 257 243 236 231 221 222 218 215
155 139 163 216 222 239 272 232 225 227 228 228 231 239 260 270 270 268 284 280 296 301 313 314 313 311 312 315 314 309 307 301 296 280 273 259 252 244 237 228 218 205 215 200
148 133 141 115 162 221 274 112 220 214 220 223 239 251 259 260 266 273 267 278 280 301 316 310 310 313 315 312 308 311 315 303 289 286 274 255 237 244 237 222 213 203 182 192
180 155 124 173 219 306 275 217 172 188 241 228 231 245 254 263 289 271 258 253 229 310 303 298 298 304 309 311 312 314 311 302 294 277 270 257 240 239 217 212 214 211 181 176
138 115 181 156 219 229 279 191 184 166 265 204 220 239 247 256 248 265 233 195 295 304 287 289 292 297 302 310 313 310 305 307 293 277 263 253 244 234 224 214 187 160 206 163
141 133 195 181 232 262 230 141 152 184 256 198 209 226 237 231 229 255 189 276 269 271 282 295 302 301 297 304 305 304 303 300 295 291 259 249 239 229 222 203 172 155 142 121
164 167 187 175 234 257 181 137 191 210 239 177 204 225 226 232 261 275 263 269 289 271 278 279 300 302 304 304 295 299 300 302 301 278 260 243 211 203 184 180 163 157 153 146
210 193 190 199 215 149 192 224 230 207 216 218 221 228 238 258 270 285 300 304 294 286 271 246 266 292 297 299 286 296 298 304 301 279 259 230 183 186 182 176 163 154 159 148
225 206 235 159 225 221 219 234 245 245 240 251 255 242 251 268 281 293 294 293 295 286 273 279 276 285 291 301 295 279 292 293 282 276 256 214 192 185 191 171 176 170 170 149
175 162 201 253 255 295 237 236 245 259 244 228 239 240 254 276 276 274 281 285 285 283 279 281 267 276 280 295 293 291 289 287 272 263 237 200 203 185 189 195 179 174 185 174
177 173 201 237 219 227 259 224 229 245 259 262 253 268 254 240 269 279 279 280 281 283 283 270 270 267 276 284 285 289 286 276 262 255 230 201 185 192 176 167 116 120 150 136